Regional Weather Roundup
Issued by NWS

Home | Current Version | Previous Version | Text Only | Print | Product List | Glossary Off
Versions: 1 2 3 4 5 6 7 8 9 10 11 12 13 14 15 16 17 18 19 20 21 22 23 24 25 26 27 28 29 30 31 32 33 34 35 36 37 38 39 40 41 42 43 44 45 46 47 48 49 50

005
ASUS45 KBOI 241010
RWRID

IDAHO REGIONAL WEATHER ROUNDUP
NATIONAL WEATHER SERVICE BOISE ID
400 AM MDT SAT SEP 24 2016

NOTE: "FAIR" INDICATES FEW OR NO CLOUDS BELOW 12000 FEET
WITH NO SIGNIFICANT WEATHER AND/OR OBSTRUCTIONS TO VISIBILITY

IDZ012-014-241100-
SOUTHWEST IDAHO


CITY           SKY/WX    TMP DP  RH WIND       PRES   REMARKS
BOISE          CLEAR     53  42  66 NW13      30.15R
CALDWELL       CLEAR     54  43  66 W14       30.17R
MOUNTAIN HOME  CLEAR     54  43  67 NW21G26   30.14R
$$

IDZ016-017-241100-
SOUTHCENTRAL IDAHO


CITY           SKY/WX    TMP DP  RH WIND       PRES   REMARKS
BURLEY         MOCLDY    48  40  73 W14G24    30.06R
JEROME         MOCLDY    49  40  71 SW18G28   30.10R
TWIN FALLS     MOCLDY    49  41  74 W22G30    30.12R
$$

IDZ019>023-241100-
SOUTHEAST IDAHO


CITY           SKY/WX    TMP DP  RH WIND       PRES   REMARKS
IDAHO FALLS    CLOUDY    43  40  89 SW7       30.05R
POCATELLO      CLOUDY    45  43  93 CALM      30.07R
REXBURG        CLOUDY    42  40  92 S7        30.04R
$$

IDZ006-010-011-018-031-032-241100-
CENTRAL IDAHO MOUNTAINS


CITY           SKY/WX    TMP DP  RH WIND       PRES   REMARKS
MCCALL         MOCLDY    45  39  79 W5        30.17S
HAILEY         PTCLDY    45  36  70 NW5       30.09S
STANLEY          N/A     42  34  73 NW6       30.17R
SALMON         CLOUDY    46  39  76 CALM      30.10R
CHALLIS        PTCLDY    41  36  82 CALM      30.12R
$$

IDZ002-004-006-007-026-241100-
NORTHERN IDAHO


CITY           SKY/WX    TMP DP  RH WIND       PRES   REMARKS
LEWISTON       PTCLDY    54  45  71 CALM      30.17R
LOWELL           N/A     51  48  89 CALM      30.19S
COEUR D`ALENE  NOT AVBL
MULLAN PASS    LGT RAIN  37  37 100 VRB6      30.13S VSB 1/4 WCI  32
$$




USA.gov is the U.S. government's official web portal to all federal, state and local government web resources and services.